STARLINK-33671, 63320

Orbit data source: Space-Track

STARLINK-33671, 63320 is a payload satellite owned by SpaceX/Seattle (US) in LEO that was launched on Tue, 18 Mar 2025 UTC via an FALCON 9 launch vehicle from the Air Force Eastern Test Range (AFETR). Payload-class satellites include a variety of spacecraft equipped with specific instruments for various scientific and technological missions. These include communications satellites like Starlink; space stations such as the ISS; scientific satellites like the Hubble; Earth observation satellites from companies like Planet Labs, Umbra, and HawkEye 360; GPS; miniature CubeSats for education and research; and military/defense satellites.

Loading next visibility...
Identifier
63320, 2025-057P
Orbit
LEO
Country
Flag of USUS
Related business
Manufacturer
SpaceX/Seattle
Mission
Operational Commercial Communications
Bus & Motor
STARLINK V2MO, Unknown motor
Mass
575 kg wet, ~530 kg dry
Launch date (UTC)
2025-03-18 (6 months ago)
Launch vehicle
FALCON 9
Launch site
Air Force Eastern Test Range (AFETR)
Object type
Payload
Rocket body
Debris
Shape & HBR
Box + 1 Pan, 14.5 m
Radar Cross Section
41.120 m², Large (>1 m²)

Expand to show TLE details & history
Last TLE update: 12 hours ago

TLE from 12 hours ago
0 STARLINK-33671
1 63320U 25057P   25258.14843825  .00073769  00000-0  26591-2 0  9997
2 63320  43.0023 291.5791 0000785 157.6303 202.4583 15.27635213 29052
Epoch: 2025-09-15T03:33Z
TLE epoch observation values (Epoch: 2025-09-15T03:33:45.064Z)
Latitude
-0.00003°
Longitude
-116.21595°
Altitude
483.157 km
Speed
7.625 km/s
True Right ascension
19h 26m 18s
True Declination
0° 00' 00"
Sunlit
Object was in full shadow at epoch
Visualization orbit readout
Latitude
Unknown
Longitude
Unknown
Altitude
Unknown
Speed
Unknown
Apparent Right ascension
Unknown
Apparent Declination
Unknown
Sunlit
N/A
Visualization observer readout
Local Sidereal Time
08:42:32
Azimuth
Unknown
Elevation
Unknown
Doppler factor
Unknown
Orbital elements
Apogee altitude
485.367 km
Perigee altitude
484.29 km
Semi-major axis
6,862.966 km
Eccentricity
0.00008
Inclination
43.0023°
RAAN
291.5791°
Arg. of periapsis
157.6303°
True anomaly
202.45486°
Mean anomaly
202.4583°
Eccentric anomaly
202.45658°
Mean motion
3.81747 °/min
Orbital period
94.3 mins
BSTAR
0.0026591
Loading maneuver chart data...
Computing Atmospheric mass density...
Loading historical data...
Loading historical data...
Loading historical data...
Loading historical data...
Loading historical data...
Loading historical data...
Loading historical data...

Documentation

Showing up to 5 results
|